HVN1344 VVTS-VVCR

Flight info

Callsign HVN1344
Flight time N/A
Altitude 25000
Route BIXEX5T BIXEX W15 BANKE BANKE1A
Aircraft B789/H-SDE1E2E3FGHIJ2J3J4J5M1RWXY/LB1D1

Departure

Time N/A
Airport Tan Son Nhat International Airport (VVTS)

Arrival

Time 2026-04-27 07:16
Airport Cam Ranh International Airport / Cam Ranh Air Base (VVCR)
Time Latitude Longitude Altitude Speed Heading
2026-04-27 06:50 11.32511 107.49302 24859 ft 417 kts 63°
2026-04-27 06:50 11.33827 107.51940 24859 ft 418 kts 63°
2026-04-27 06:50 11.35144 107.54579 24865 ft 418 kts 62°
2026-04-27 06:50 11.36443 107.57178 24869 ft 418 kts 62°
2026-04-27 06:51 11.37342 107.58977 24867 ft 418 kts 62°
2026-04-27 06:51 11.38215 107.60724 24870 ft 418 kts 63°
2026-04-27 06:51 11.40407 107.65118 24873 ft 419 kts 62°
2026-04-27 06:51 11.41731 107.67770 24877 ft 419 kts 62°
2026-04-27 06:52 11.42987 107.70458 24876 ft 419 kts 67°
2026-04-27 06:52 11.44036 107.73242 24886 ft 419 kts 69°
2026-04-27 06:52 11.45071 107.76017 24885 ft 419 kts 67°
2026-04-27 06:52 11.46207 107.78745 24886 ft 419 kts 66°
2026-04-27 06:53 11.47351 107.81440 24886 ft 419 kts 66°
2026-04-27 06:53 11.48458 107.84184 24891 ft 419 kts 68°
2026-04-27 06:53 11.49550 107.86939 24889 ft 419 kts 67°
2026-04-27 06:53 11.50666 107.89693 24892 ft 419 kts 67°
2026-04-27 06:54 11.51794 107.92441 24891 ft 419 kts 67°
2026-04-27 06:54 11.52908 107.95186 24893 ft 419 kts 67°
2026-04-27 06:54 11.54018 107.97941 24895 ft 420 kts 67°
2026-04-27 06:54 11.55129 108.00688 24894 ft 420 kts 67°
2026-04-27 06:55 11.56247 108.03441 24887 ft 420 kts 67°
2026-04-27 06:55 11.57351 108.06164 24894 ft 420 kts 67°
2026-04-27 06:55 11.58464 108.08917 24889 ft 419 kts 67°
2026-04-27 06:55 11.59580 108.11677 24890 ft 419 kts 67°
2026-04-27 06:56 11.60694 108.14430 24896 ft 419 kts 67°
2026-04-27 06:56 11.61806 108.17178 24894 ft 419 kts 67°
2026-04-27 06:56 11.62916 108.19926 24897 ft 419 kts 67°
2026-04-27 06:56 11.64013 108.22643 24897 ft 419 kts 67°
2026-04-27 06:57 11.65124 108.25392 24900 ft 419 kts 67°
2026-04-27 06:57 11.66238 108.28150 24900 ft 419 kts 67°
2026-04-27 06:57 11.67348 108.30900 24905 ft 419 kts 67°
2026-04-27 06:57 11.68401 108.33509 24904 ft 419 kts 67°
2026-04-27 06:58 11.69498 108.36236 24623 ft 413 kts 67°
2026-04-27 06:58 11.71680 108.41646 23560 ft 417 kts 67°
2026-04-27 06:58 11.72792 108.44401 22967 ft 418 kts 67°
2026-04-27 06:59 11.73896 108.47141 22405 ft 419 kts 67°
2026-04-27 06:59 11.75011 108.49910 21835 ft 420 kts 67°
2026-04-27 06:59 11.76120 108.52664 21240 ft 421 kts 67°
2026-04-27 06:59 11.77236 108.55434 20645 ft 422 kts 67°
2026-04-27 07:00 11.78357 108.58221 20020 ft 423 kts 67°
2026-04-27 07:00 11.79473 108.60994 19374 ft 424 kts 67°
2026-04-27 07:00 11.80586 108.63761 18722 ft 424 kts 67°
2026-04-27 07:00 11.81703 108.66539 18013 ft 425 kts 67°
2026-04-27 07:01 11.82831 108.69345 17281 ft 424 kts 67°
2026-04-27 07:01 11.83936 108.72094 16582 ft 422 kts 67°
2026-04-27 07:01 11.85047 108.74859 15876 ft 418 kts 67°
2026-04-27 07:01 11.86150 108.77608 15175 ft 413 kts 67°
2026-04-27 07:02 11.87231 108.80301 14494 ft 408 kts 67°
2026-04-27 07:02 11.88298 108.82957 13824 ft 404 kts 68°
2026-04-27 07:02 11.89353 108.85600 13176 ft 397 kts 69°
2026-04-27 07:02 11.90019 108.88261 12873 ft 372 kts 81°
2026-04-27 07:03 11.90434 108.90701 12820 ft 339 kts 79°
2026-04-27 07:03 11.90854 108.93030 12772 ft 321 kts 79°
2026-04-27 07:03 11.91233 108.95224 12738 ft 313 kts 80°
2026-04-27 07:03 11.91605 108.97417 12716 ft 313 kts 80°
2026-04-27 07:04 11.91981 108.99608 12689 ft 314 kts 80°
2026-04-27 07:04 11.92362 109.01814 12574 ft 317 kts 80°
2026-04-27 07:04 11.92746 109.04043 12239 ft 317 kts 80°
2026-04-27 07:04 11.93125 109.06250 11833 ft 314 kts 80°
2026-04-27 07:05 11.93496 109.08415 11438 ft 311 kts 80°
2026-04-27 07:05 11.93867 109.10578 11030 ft 307 kts 80°
2026-04-27 07:05 11.94233 109.12707 10646 ft 304 kts 80°
2026-04-27 07:05 11.94600 109.14840 10249 ft 302 kts 80°
2026-04-27 07:06 11.94959 109.16940 9909 ft 298 kts 80°
2026-04-27 07:06 11.95310 109.18989 9586 ft 298 kts 80°
2026-04-27 07:06 11.95615 109.21089 9213 ft 295 kts 89°
2026-04-27 07:06 11.95211 109.23152 8855 ft 293 kts 109°
2026-04-27 07:07 11.94698 109.24681 8569 ft 293 kts 110°
2026-04-27 07:07 11.93824 109.27027 8130 ft 290 kts 111°
2026-04-27 07:07 11.93118 109.28962 7771 ft 288 kts 110°
2026-04-27 07:07 11.92208 109.30734 7425 ft 285 kts 133°
2026-04-27 07:08 11.90658 109.31935 7075 ft 277 kts 158°
2026-04-27 07:08 11.88865 109.32329 6730 ft 254 kts 181°
2026-04-27 07:08 11.87212 109.32007 6410 ft 232 kts 201°
2026-04-27 07:08 11.85702 109.31452 6190 ft 228 kts 199°
2026-04-27 07:09 11.84219 109.30917 5861 ft 222 kts 199°
2026-04-27 07:09 11.82820 109.30400 5499 ft 209 kts 200°
2026-04-27 07:09 11.81478 109.29905 5123 ft 201 kts 200°
2026-04-27 07:09 11.80183 109.29375 4634 ft 198 kts 209°
2026-04-27 07:10 11.79348 109.28306 4034 ft 197 kts 249°
2026-04-27 07:10 11.79299 109.26945 3523 ft 191 kts 287°
2026-04-27 07:10 11.79833 109.25722 3165 ft 192 kts 297°
2026-04-27 07:10 11.80441 109.24499 2818 ft 193 kts 298°
2026-04-27 07:11 11.81043 109.23260 2465 ft 196 kts 297°
2026-04-27 07:11 11.81651 109.21984 2055 ft 202 kts 297°
2026-04-27 07:11 11.82253 109.20719 1967 ft 195 kts 296°
2026-04-27 07:11 11.82847 109.19473 1987 ft 199 kts 298°
2026-04-27 07:12 11.83481 109.18205 1964 ft 199 kts 303°
2026-04-27 07:12 11.84547 109.17390 1934 ft 193 kts 346°
2026-04-27 07:12 11.85882 109.17376 2348 ft 204 kts 17°
2026-04-27 07:12 11.87223 109.17846 2382 ft 195 kts 22°
2026-04-27 07:13 11.88450 109.18287 2320 ft 180 kts 21°
2026-04-27 07:13 11.89593 109.18690 2120 ft 175 kts 21°
2026-04-27 07:13 11.90734 109.19109 1802 ft 170 kts 22°
2026-04-27 07:13 11.91816 109.19467 1473 ft 161 kts 19°
2026-04-27 07:14 11.92859 109.19816 1211 ft 150 kts 22°
2026-04-27 07:14 11.93628 109.20090 1045 ft 147 kts 23°
2026-04-27 07:14 11.94607 109.20428 816 ft 149 kts 21°
2026-04-27 07:14 11.95599 109.20760 554 ft 146 kts 21°
2026-04-27 07:15 11.96552 109.21098 423 ft 147 kts 24°
2026-04-27 07:15 11.97512 109.21429 244 ft 151 kts 23°
2026-04-27 07:15 11.98493 109.21764 57 ft 137 kts 25°
2026-04-27 07:15 11.99259 109.22037 50 ft 98 kts 18°
2026-04-27 07:16 11.99806 109.22227 57 ft 59 kts 19°
2026-04-27 07:16 12.00159 109.22349 52 ft 50 kts 18°
2026-04-27 07:16 12.00467 109.22456 55 ft 44 kts 19°
2026-04-27 07:16 12.00714 109.22521 56 ft 31 kts 354°
2026-04-27 07:17 12.00913 109.22472 54 ft 29 kts 346°
2026-04-27 07:17 12.01081 109.22418 53 ft 21 kts 318°
2026-04-27 07:17 12.01139 109.22287 55 ft 21 kts 290°
2026-04-27 07:17 12.01150 109.22177 50 ft 11 kts 232°
2026-04-27 07:18 12.01084 109.22140 58 ft 11 kts 199°
2026-04-27 07:18 12.01005 109.22113 55 ft 12 kts 199°
2026-04-27 07:18 12.00920 109.22084 55 ft 14 kts 199°
2026-04-27 07:18 12.00828 109.22052 51 ft 14 kts 198°
2026-04-27 07:19 12.00807 109.22042 53 ft 0 kts 226°
2026-04-27 07:19 12.00805 109.22039 52 ft 1 kts 236°
2026-04-27 07:19 12.00802 109.22022 51 ft 2 kts 272°
2026-04-27 07:19 12.00810 109.21988 54 ft 8 kts 287°
2026-04-27 07:20 12.00832 109.21921 52 ft 9 kts 289°
2026-04-27 07:20 12.00833 109.21880 56 ft 1 kts 236°
2026-04-27 07:20 12.00823 109.21873 54 ft 2 kts 210°
2026-04-27 07:20 12.00786 109.21860 54 ft 10 kts 199°
2026-04-27 07:21 12.00727 109.21831 51 ft 8 kts 228°
2026-04-27 07:21 12.00726 109.21770 56 ft 11 kts 290°
2026-04-27 07:21 12.00746 109.21712 52 ft 5 kts 289°
2026-04-27 07:21 12.00753 109.21689 57 ft 0 kts 289°